{"data":{"norad_id":69487,"intl_designator":"2026-131K","name":"STARLINK-37842","alt_names":[],"object_type":"PAYLOAD","status":"ACTIVE","operator":null,"country":"US","launch_date":"2026-06-11","launch_site_code":"AFWTR","launch_vehicle":null,"mission":null,"orbit_class":"UNKNOWN","rcs_meters":null,"size_class":null,"mass_kg":null,"dimensions":null,"purposes":["comms"],"wikipedia_slug":null,"has_3d_model":false,"image_url":null,"decayed_at":null,"tle_current":{"epoch":"2026-09-20T00:30:18.826272Z","epoch_age_seconds":66804,"freshness":"FRESH","line1":"1 69487U 26131K   26263.02105123  .00010006  00000+0  31179-3 0  9990","line2":"2 69487  97.2846 283.8858 0001635  84.8417 275.3012 15.33451531 16829","mean_motion":15.33451531,"eccentricity":0.0001635,"inclination_deg":97.2846,"raan_deg":283.8858,"arg_perigee_deg":84.8417,"mean_anomaly_deg":275.3012,"bstar":0.00031179,"rev_number":1682,"period_min":93.905804708476,"perigee_km":464.40480435459,"apogee_km":466.64268141751,"semimajor_km":6843.660742886,"source":"CELESTRAK","updated_at":"2026-09-20T09:00:44.207082Z"}}}